Stations météo

réclame
Mon MeteoGroup
Alghero, Italie (16520): Température de l'air & dewpoint: 17.10.2017 05:00:00 - 23.10.2017 05:00:00 (CEST)Alghero, Italie (16520): Vitesse du vent: 17.10.2017 05:00:00 - 23.10.2017 05:00:00 (CEST)Alghero, Italie (16520): Direction du vent: 17.10.2017 05:00:00 - 23.10.2017 05:00:00 (CEST)Alghero, Italie (16520): reduced air pressure: 17.10.2017 05:00:00 - 23.10.2017 05:00:00 (CEST)Alghero, Italie (16520): visibility: 17.10.2017 05:00:00 - 23.10.2017 05:00:00 (CEST)
Date & Time tt [°C] td [°C] ff [km/h] ff [knt] dd ppp [hPa] vv [km]
23.10.2017 05:00:00 16,6 6,2 22 12 NW 1018,5 10
23.10.2017 04:00:00 17,0 6,0 26 14 NNW - 10
23.10.2017 03:00:00 17,0 7,0 22 12 NW - 10
23.10.2017 02:00:00 17,5 8,9 24 13 NW 1018,8 10
23.10.2017 01:00:00 - - - - - - -
23.10.2017 00:00:00 18,0 8,0 24 13 WNW - 10
22.10.2017 23:00:00 17,9 7,8 21 11 NW 1019,5 10
22.10.2017 22:00:00 18,0 9,0 18 10 NW - 10
22.10.2017 21:00:00 18,0 9,0 24 13 WNW - 10
22.10.2017 20:00:00 17,8 8,5 16 9 WNW 1020,4 10
22.10.2017 19:00:00 18,0 8,0 15 8 WNW - 10
22.10.2017 18:00:00 19,0 9,0 18 10 WNW - 10
22.10.2017 17:00:00 19,5 9,8 15 8 WNW 1020,0 10
22.10.2017 16:00:00 19,0 9,0 22 12 NW - 10
22.10.2017 15:00:00 20,0 10,0 16 9 NW - 10
22.10.2017 14:00:00 19,8 10,8 18 10 NW 1021,1 10
22.10.2017 13:00:00 20,0 10,0 18 10 NW - 10
22.10.2017 12:00:00 20,0 12,0 21 11 WNW - 10
22.10.2017 11:00:00 20,5 12,6 11 6 NW 1021,4 10
22.10.2017 10:00:00 20,0 14,0 8 4 WNW - 10
22.10.2017 09:00:00 19,0 15,0 8 4 NW - 10
22.10.2017 08:00:00 18,3 15,7 4 2 - 1020,2 10
22.10.2017 07:00:00 19,0 16,0 5 3 NW - 10
22.10.2017 06:00:00 - - - - - - -
22.10.2017 05:00:00 19,7 17,8 13 7 W 1019,7 10
22.10.2017 04:00:00 20,0 17,0 9 5 W - 10
22.10.2017 03:00:00 20,0 19,0 5 3 W - 10
22.10.2017 02:00:00 19,8 18,3 13 7 SSW 1021,1 10
22.10.2017 01:00:00 17,0 15,0 0 0 N - 10
22.10.2017 00:00:00 16,0 15,0 0 0 N - 10
21.10.2017 23:00:00 18,3 17,0 0 0 N 1022,0 10
21.10.2017 22:00:00 18,0 17,0 0 0 N - 10
21.10.2017 21:00:00 19,0 17,0 4 2 SW - 10
21.10.2017 20:00:00 19,5 17,1 4 2 W 1021,7 10
21.10.2017 19:00:00 21,0 17,0 5 3 SW - 10
21.10.2017 18:00:00 23,0 17,0 11 6 SW - 10
21.10.2017 17:00:00 24,1 17,1 15 8 SW 1020,9 10
21.10.2017 16:00:00 25,0 17,0 15 8 SW - 10
21.10.2017 15:00:00 26,0 16,0 16 9 SW - 10
21.10.2017 14:00:00 25,8 16,9 16 9 SSW 1021,8 10
21.10.2017 13:00:00 25,0 17,0 18 10 S - 10
21.10.2017 12:00:00 24,0 18,0 16 9 S - 10
21.10.2017 11:00:00 23,7 17,7 8 4 S 1022,4 10
21.10.2017 10:00:00 20,0 16,0 4 2 - - 10
21.10.2017 09:00:00 16,0 15,0 0 0 N - 10
21.10.2017 08:00:00 13,4 12,3 0 0 N 1021,4 9
21.10.2017 07:00:00 14,0 13,0 0 0 N - 9
21.10.2017 06:00:00 14,0 13,0 4 2 - - 10
21.10.2017 05:00:00 15,4 13,9 0 0 N 1020,6 10
21.10.2017 04:00:00 16,0 15,0 0 0 N - 10
21.10.2017 03:00:00 17,0 16,0 2 1 E - 10
21.10.2017 02:00:00 18,2 16,5 0 0 N 1020,5 10
21.10.2017 01:00:00 20,0 19,0 13 7 SSW - 10
21.10.2017 00:00:00 20,0 18,0 13 7 SSW - 10
20.10.2017 23:00:00 19,4 16,3 8 4 SSW 1020,3 10
20.10.2017 22:00:00 20,0 16,0 2 1 S - 10
20.10.2017 21:00:00 20,0 16,0 4 2 - - 10
20.10.2017 20:00:00 21,1 16,0 5 3 W 1018,7 10
20.10.2017 19:00:00 23,0 17,0 4 2 - - 10
20.10.2017 18:00:00 26,0 14,0 11 6 NNW - 10
20.10.2017 17:00:00 27,1 14,5 15 8 NNE 1016,6 10
20.10.2017 16:00:00 28,0 10,0 16 9 W - 10
20.10.2017 15:00:00 28,0 11,0 11 6 WNW - 10
20.10.2017 14:00:00 29,1 10,0 4 2 - 1016,0 10
20.10.2017 13:00:00 28,0 11,0 5 3 - - 10
20.10.2017 12:00:00 27,0 11,0 5 3 ENE - 10
20.10.2017 11:00:00 25,7 12,9 5 3 E 1016,9 10
20.10.2017 10:00:00 21,0 14,0 5 3 N - 10
20.10.2017 09:00:00 17,0 13,0 5 3 N - 10
20.10.2017 08:00:00 15,0 12,1 8 4 NNW 1015,7 10
20.10.2017 07:00:00 15,0 12,0 4 2 - - 10
20.10.2017 06:00:00 15,0 12,0 8 4 N - 10
20.10.2017 05:00:00 15,2 12,3 4 2 - 1014,1 10
20.10.2017 04:00:00 - - - - - - -
20.10.2017 03:00:00 17,0 13,0 8 4 N - 10
20.10.2017 02:00:00 17,4 13,0 9 5 N 1014,3 10
20.10.2017 01:00:00 17,0 13,0 5 3 WNW - 10
20.10.2017 00:00:00 16,0 12,0 5 3 NNE - 10
19.10.2017 23:00:00 17,5 12,4 4 2 - 1013,8 10
19.10.2017 22:00:00 21,0 13,0 13 7 E - 10
19.10.2017 21:00:00 20,0 13,0 8 4 E - 10
19.10.2017 20:00:00 21,0 14,3 4 2 NNW 1012,6 10
19.10.2017 19:00:00 24,0 14,0 5 3 NNW - 10
19.10.2017 18:00:00 27,0 13,0 9 5 SSW - 10
19.10.2017 17:00:00 28,2 10,8 8 4 SW 1011,9 10
19.10.2017 16:00:00 28,0 8,0 9 5 SSW - 10
19.10.2017 15:00:00 28,0 10,0 5 3 S - 10
19.10.2017 14:00:00 27,4 9,0 11 6 SSW 1013,5 10
19.10.2017 13:00:00 28,0 7,0 13 7 S - 10
19.10.2017 12:00:00 27,0 6,0 9 5 ENE - 10
19.10.2017 11:00:00 25,5 10,5 11 6 E 1014,7 10
19.10.2017 10:00:00 19,0 13,0 8 4 N - 10
19.10.2017 09:00:00 15,0 12,0 5 3 N - 10
19.10.2017 08:00:00 12,0 10,4 0 0 N 1015,3 10
19.10.2017 07:00:00 11,0 9,0 8 4 NW - 10
19.10.2017 06:00:00 12,0 10,0 2 1 N - 10
19.10.2017 05:00:00 11,4 9,3 2 1 - 1015,9 10
19.10.2017 04:00:00 13,0 10,0 5 3 N - 10
19.10.2017 03:00:00 12,0 9,0 5 3 N - 10
19.10.2017 02:00:00 11,2 9,3 4 2 - 1016,5 10
19.10.2017 01:00:00 12,0 10,0 8 4 NNE - 10
19.10.2017 00:00:00 13,0 11,0 2 1 - - 10
18.10.2017 23:00:00 13,4 11,2 4 2 ENE 1017,4 10
18.10.2017 22:00:00 15,0 12,0 0 0 N - 10
18.10.2017 21:00:00 16,0 12,0 2 1 - - 10
18.10.2017 20:00:00 17,7 11,8 2 1 - 1017,0 10
18.10.2017 19:00:00 20,0 13,0 5 3 NE - 10
18.10.2017 18:00:00 23,0 11,0 4 2 - - 10
18.10.2017 17:00:00 24,1 12,6 8 4 WNW 1016,7 10
18.10.2017 16:00:00 25,0 10,0 11 6 W - 10
18.10.2017 15:00:00 26,0 7,0 11 6 S - 10
18.10.2017 14:00:00 25,8 12,4 9 5 SSW 1018,1 10
18.10.2017 13:00:00 26,0 9,0 5 3 S - 10
18.10.2017 12:00:00 24,0 9,0 4 2 - - 10
18.10.2017 11:00:00 22,5 11,6 4 2 - 1020,1 10
18.10.2017 10:00:00 17,0 12,0 4 2 - - 10
18.10.2017 09:00:00 12,0 11,0 5 3 NNE - 10
18.10.2017 08:00:00 9,4 8,5 5 3 NNE 1020,3 10
18.10.2017 07:00:00 9,0 8,0 0 0 N - 10
18.10.2017 06:00:00 9,0 8,0 2 1 - - 10
18.10.2017 05:00:00 8,8 7,7 4 2 NE 1021,1 10
18.10.2017 04:00:00 9,0 8,0 0 0 N - 10
18.10.2017 03:00:00 10,0 9,0 2 1 E - 10
18.10.2017 02:00:00 10,8 9,7 8 4 WNW 1022,2 10
18.10.2017 01:00:00 12,0 11,0 5 3 NNW - 10
18.10.2017 00:00:00 13,0 11,0 4 2 - - 10
17.10.2017 23:00:00 13,6 11,9 0 0 N 1022,8 10
17.10.2017 22:00:00 15,0 13,0 2 1 N - 10
17.10.2017 21:00:00 17,0 14,0 4 2 ENE - 10
17.10.2017 20:00:00 19,0 15,7 5 3 N 1022,9 10
17.10.2017 19:00:00 20,0 15,0 5 3 N - 10
17.10.2017 18:00:00 23,0 15,0 9 5 W - 10
17.10.2017 17:00:00 23,4 14,1 11 6 WNW 1022,7 10
17.10.2017 16:00:00 24,0 15,0 13 7 WNW - 10
17.10.2017 15:00:00 25,0 15,0 8 4 WNW - 10
17.10.2017 14:00:00 25,3 14,7 11 6 WNW 1023,9 10
17.10.2017 13:00:00 25,0 14,0 9 5 S - 10
17.10.2017 12:00:00 25,0 13,0 5 3 S - 10
17.10.2017 11:00:00 22,8 14,7 4 2 - 1025,7 10
17.10.2017 10:00:00 18,0 13,0 4 2 - - 10
17.10.2017 09:00:00 13,0 12,0 4 2 N - 10
17.10.2017 08:00:00 9,6 8,3 4 2 N 1025,4 10
17.10.2017 07:00:00 10,0 9,0 0 0 N - 10
17.10.2017 06:00:00 11,0 9,0 4 2 ENE - 10
17.10.2017 05:00:00 10,6 9,2 4 2 NE 1025,8 10

tt = Température de l'air
td = dewpoint
ff = Vitesse du vent
dd = Direction du vent
ppp = reduced air pressure
vv = visibility

stations d'obs. à proximité